Wind_Speed
67 65 64 64 66 68 68 67 63 60 57 52 49 47 43 40 37 37 33 30 29 25 20 14 15 11 15 20 13 11 9 12 14 11 13 14 14 12 10 11 11 12 13 14
72 70 70 68 66 64 65 69 70 65 61 57 52 49 46 44 43 39 36 34 31 25 22 15 12 17 16 21 13 12 11 14 16 16 14 15 16 13 9 11 8 11 11 14
74 78 76 71 68 66 62 69 72 69 64 63 59 55 51 46 45 43 41 35 32 26 25 16 24 18 14 18 14 13 14 16 20 20 16 17 16 14 13 12 9 11 8 11
79 81 79 76 72 69 65 73 72 71 66 64 62 58 57 51 50 47 44 38 35 31 29 28 27 23 22 23 18 17 16 17 24 22 20 18 18 16 14 13 10 10 8 8
80 82 80 78 80 74 76 74 73 68 64 63 63 59 57 57 59 57 49 43 39 37 34 38 33 26 24 25 21 20 18 19 26 26 24 21 18 17 13 12 11 9 9 7
82 82 82 81 80 79 80 75 75 69 66 61 58 60 59 60 61 61 55 50 45 40 41 39 36 28 21 21 24 24 20 22 23 28 27 24 22 18 14 13 13 10 8 8
84 84 83 83 82 81 81 81 79 75 69 65 65 58 60 61 62 62 58 53 48 47 47 44 40 33 25 19 26 21 19 24 23 29 28 28 26 24 19 16 15 14 10 9
87 84 86 84 84 81 81 81 80 78 75 72 70 66 64 63 62 61 55 54 54 54 54 48 43 39 33 27 26 23 18 24 21 24 31 30 30 27 24 21 17 16 14 10
91 91 88 86 87 87 85 83 80 81 81 78 78 73 71 68 62 56 53 54 54 55 57 54 47 40 37 38 34 27 20 24 22 22 29 33 32 31 28 24 21 18 15 12
94 96 95 92 90 90 89 88 86 83 81 80 81 81 76 72 65 60 54 56 54 52 49 56 50 38 38 36 37 33 27 29 26 24 26 30 33 34 32 28 26 22 18 15
95 97 100 100 99 96 93 90 88 88 86 83 82 83 78 76 71 66 62 59 55 49 43 44 45 39 34 41 40 36 28 28 32 30 28 29 33 33 33 33 31 27 23 20
97 101 104 105 106 103 100 97 92 89 89 90 87 87 81 79 75 71 67 63 60 55 50 50 46 43 46 42 37 36 32 31 32 25 28 29 30 34 34 35 33 31 28 25
96 99 104 103 104 106 106 104 100 96 95 93 92 89 88 82 78 73 72 69 67 61 52 52 48 47 47 41 40 37 35 30 32 25 25 28 29 31 33 35 36 34 32 29
102 101 104 106 106 104 104 105 105 104 102 100 94 89 92 87 86 80 77 75 74 68 59 52 59 53 52 46 43 39 36 31 31 28 26 27 30 29 32 35 35 34 34 33
97 102 104 106 106 107 107 105 105 105 107 106 101 94 92 91 90 86 83 80 77 74 66 58 59 64 52 47 47 47 41 36 34 32 28 28 26 22 22 31 36 36 35 33
84 95 104 107 107 106 107 110 109 109 108 107 105 103 99 95 92 90 87 84 81 79 74 69 66 63 55 53 52 50 44 40 39 39 35 30 25 26 23 21 27 32 33 32
78 82 91 101 108 110 109 111 114 114 112 110 109 107 103 102 99 94 89 87 85 83 80 76 72 64 60 62 59 58 51 48 45 40 38 35 32 29 26 24 21 23 26 25
78 80 83 87 95 103 112 114 114 115 115 113 111 110 108 107 105 102 97 91 88 85 85 82 79 72 63 68 69 67 60 53 49 45 43 41 37 34 30 28 27 26 26 27
76 80 84 85 90 93 97 107 116 116 116 116 115 111 111 111 108 106 104 97 93 88 89 87 87 85 84 77 71 72 67 59 54 51 50 44 41 38 35 34 33 29 28 29
61 69 75 82 87 90 93 96 104 114 115 114 117 116 114 113 112 112 109 104 101 96 92 93 91 93 89 83 82 80 74 69 63 56 53 50 46 42 39 37 36 36 32 29
50 55 59 65 74 83 90 93 96 99 101 112 114 118 118 116 113 115 114 112 107 104 99 97 97 97 97 93 85 88 81 78 72 66 58 57 50 46 45 42 40 39 39 31
39 44 50 55 60 67 78 83 87 93 97 99 108 115 116 118 116 115 116 116 112 107 105 101 99 99 102 99 95 92 86 81 80 75 67 64 57 49 48 47 46 43 44 37
32 35 40 45 50 56 64 68 76 82 89 92 95 98 110 114 119 118 119 118 117 113 109 107 102 101 98 104 101 96 91 82 83 85 78 68 65 59 53 47 46 45 48 44
29 33 38 41 41 47 52 57 63 71 77 80 85 89 94 105 114 120 122 121 118 117 114 111 108 104 103 106 106 101 100 86 88 88 85 76 69 64 59 55 54 53 51 47
28 30 32 33 35 40 43 47 53 59 64 67 73 77 83 96 105 115 121 123 122 119 119 117 114 111 109 108 108 106 103 94 87 89 88 84 78 68 65 61 58 57 57 48
30 29 32 34 35 35 35 41 45 48 54 59 62 66 72 86 99 108 118 123 123 122 122 120 117 117 117 113 111 110 109 100 93 91 83 81 82 74 67 61 61 62 59 52
Wind_Direction
222 223 223 223 224 227 227 227 225 226 230 228 233 234 232 235 239 242 241 245 250 260 262 295 288 306 310 307 290 286 222 215 206 196 196 183 176 165 161 127 112 102 88 71
223 224 225 225 225 225 228 230 228 225 225 231 232 234 232 232 231 235 239 243 248 256 260 258 257 286 297 300 284 265 235 215 206 211 206 202 191 181 176 138 133 118 95 73
223 225 226 226 227 226 226 231 230 227 227 228 230 233 233 234 232 232 235 237 242 251 255 242 250 281 305 302 282 253 233 211 211 209 207 204 192 184 167 152 162 137 125 91
223 226 226 226 227 228 227 232 232 229 227 228 230 230 234 232 236 235 232 232 237 241 244 229 243 268 288 298 279 256 230 214 208 209 214 208 200 197 176 155 176 155 147 121
223 226 226 227 227 227 228 233 233 232 229 230 230 230 231 230 231 235 235 233 233 235 243 243 252 252 271 284 276 254 232 222 210 208 214 209 205 202 187 174 176 174 168 142
223 225 226 226 226 227 230 231 236 233 231 227 229 231 230 230 231 234 235 238 235 236 238 246 248 246 268 282 282 255 229 220 217 210 212 212 205 205 198 182 185 184 186 181
224 225 226 227 228 228 229 228 232 233 231 227 226 223 230 230 231 234 234 236 237 237 238 239 237 238 255 266 281 245 228 226 218 216 211 214 214 213 209 202 192 184 187 190
224 225 227 227 229 228 230 230 230 232 229 227 228 224 224 232 234 233 236 238 239 238 238 240 241 244 246 251 260 251 220 232 221 224 217 213 218 220 215 213 205 202 196 186
226 227 226 227 228 228 229 229 229 231 231 229 230 227 226 229 233 235 232 232 232 237 238 239 238 243 239 241 252 252 215 224 218 222 229 220 218 220 221 222 215 213 209 204
225 227 227 228 228 229 228 229 229 228 230 229 230 228 228 230 230 235 233 231 232 233 238 240 240 234 232 239 255 252 211 210 214 217 223 227 226 222 224 222 224 225 227 228
222 226 228 227 228 229 229 229 230 230 229 228 229 233 229 230 228 231 233 233 232 232 231 223 233 220 239 245 248 238 221 220 217 212 213 222 225 225 227 227 226 229 233 238
225 225 227 226 227 228 228 230 228 229 230 229 227 231 228 231 229 227 229 232 231 228 221 216 222 218 231 239 235 224 222 219 233 226 215 215 222 221 223 228 233 234 236 241
225 227 230 230 230 230 229 229 229 228 228 229 227 228 230 227 227 228 228 228 229 228 225 219 212 221 226 230 230 221 221 219 234 242 224 217 216 222 225 225 229 234 240 242
226 226 229 229 229 229 230 231 232 230 229 229 229 226 231 228 229 224 225 227 228 227 223 221 217 218 222 219 227 227 224 222 229 235 239 229 218 222 222 224 227 231 235 240
227 228 230 233 231 229 229 229 229 231 232 232 231 228 228 230 229 228 225 223 226 228 223 218 214 212 220 222 224 227 221 218 224 232 232 236 233 228 227 220 227 233 236 241
228 228 230 232 233 231 230 231 229 229 228 231 231 231 230 229 228 229 227 225 223 224 224 218 217 212 215 220 223 221 218 217 220 222 225 229 227 231 233 231 228 232 236 239
231 230 230 232 235 235 232 231 231 230 230 229 228 229 230 231 231 229 227 226 224 222 221 220 219 213 215 219 223 222 218 221 224 220 224 228 228 227 229 234 236 237 237 232
234 234 233 233 235 236 235 234 233 231 230 230 229 228 227 229 232 231 228 225 224 221 222 219 218 215 207 223 220 223 220 216 219 222 222 226 230 232 233 231 239 240 239 239
234 235 236 235 236 237 237 236 235 233 231 230 229 228 229 227 227 230 231 227 225 222 220 219 217 217 213 218 217 219 218 214 220 224 224 226 225 228 229 232 230 238 240 239
234 235 236 238 238 239 238 237 237 235 235 232 230 228 227 228 227 227 228 227 225 223 219 220 218 216 218 219 216 219 219 223 224 223 226 225 226 233 244 234 238 239 240 240
239 237 236 235 237 239 241 240 238 239 236 234 230 229 227 228 227 228 228 228 225 223 220 217 219 216 216 218 218 216 217 221 223 223 224 225 225 230 234 243 233 244 246 237
239 236 237 239 238 238 239 240 240 239 240 237 233 228 226 225 226 227 229 229 227 224 221 218 216 218 215 218 219 216 216 219 223 222 224 228 229 236 231 239 231 231 242 244
244 243 239 240 240 239 241 240 239 240 240 238 236 232 227 225 225 224 227 227 228 227 222 220 215 217 217 219 218 218 215 217 220 224 224 226 229 233 232 230 237 240 239 239
254 245 239 237 240 243 241 241 238 238 239 239 238 233 227 225 224 224 225 226 225 226 224 219 216 212 216 218 219 219 219 217 221 224 221 224 225 230 234 238 235 239 239 241
269 257 253 251 249 247 243 241 243 239 240 239 238 234 226 224 223 223 224 226 225 224 223 221 217 214 212 215 219 219 220 220 220 226 223 221 224 227 233 235 238 240 235 238
259 261 256 250 252 252 248 240 237 239 237 237 235 231 226 222 222 221 222 224 225 224 223 222 218 215 213 210 214 217 219 218 219 224 222 224 224 226 229 229 232 229 229 232
Height
10873 10879 10883 10887 10895 10904 10912 10920 10928 10937 10942 10947 10952 10957 10962 10967 10972 10975 10980 10982 10984 10986 10989 10990 10991 10992 10990 10992 10991 10990 10992 10992 10994 10996 10996 10996 10996 10997 10998 10998 10999 10999 11000 10999
10862 10865 10868 10878 10885 10895 10901 10906 10914 10926 10936 10940 10946 10952 10957 10962 10965 10968 10973 10977 10980 10982 10985 10987 10990 10990 10989 10989 10989 10988 10990 10990 10993 10995 10997 10996 10996 10997 10999 10998 11001 11002 11003 11001
10846 10847 10856 10868 10877 10886 10891 10890 10900 10915 10926 10931 10937 10943 10949 10956 10959 10961 10965 10970 10974 10978 10981 10984 10986 10988 10986 10986 10986 10987 10988 10989 10991 10995 10998 10998 10997 10998 10998 10999 11003 11004 11005 11003
10829 10832 10845 10856 10865 10872 10881 10874 10886 10901 10913 10920 10927 10934 10938 10947 10950 10953 10957 10962 10968 10972 10975 10979 10982 10985 10985 10985 10983 10985 10987 10989 10990 10992 10996 10999 10998 10999 10999 11001 11004 11004 11005 11004
10814 10820 10831 10842 10846 10859 10858 10862 10873 10889 10902 10910 10917 10923 10929 10934 10934 10940 10949 10955 10961 10965 10969 10972 10977 10982 10982 10981 10981 10983 10984 10988 10990 10991 10994 10998 10999 10999 11000 11001 11003 11004 11005 11006
10796 10805 10816 10824 10832 10843 10847 10856 10860 10877 10889 10900 10905 10911 10916 10918 10923 10930 10941 10948 10956 10962 10965 10970 10972 10976 10979 10978 10979 10981 10981 10985 10987 10990 10992 10995 10998 10998 11000 11002 11003 11005 11006 11007
10779 10791 10801 10808 10819 10826 10834 10843 10847 10858 10875 10886 10889 10898 10900 10907 10915 10922 10934 10942 10949 10954 10957 10961 10967 10972 10975 10976 10977 10977 10979 10982 10984 10987 10990 10993 10996 10998 10999 11002 11003 11004 11005 11006
10764 10775 10783 10794 10801 10812 10819 10828 10838 10843 10856 10868 10874 10886 10889 10897 10906 10917 10929 10936 10940 10944 10948 10955 10963 10966 10970 10972 10973 10975 10976 10980 10981 10985 10988 10990 10993 10996 10999 11001 11002 11003 11003 11004
10748 10754 10764 10773 10782 10792 10799 10808 10820 10827 10838 10851 10859 10870 10877 10886 10897 10909 10920 10924 10930 10934 10941 10946 10956 10961 10963 10966 10969 10973 10971 10975 10977 10981 10985 10987 10989 10993 10997 10999 11000 11001 11002 11003
10728 10732 10743 10754 10761 10767 10781 10792 10803 10813 10823 10837 10841 10850 10866 10879 10891 10898 10910 10912 10919 10927 10934 10938 10949 10956 10958 10963 10964 10968 10966 10967 10972 10976 10980 10984 10988 10990 10992 10995 10998 11000 11000 11001
10705 10710 10717 10728 10736 10748 10761 10775 10788 10797 10808 10817 10825 10835 10856 10868 10881 10890 10898 10904 10911 10920 10930 10935 10939 10952 10954 10957 10959 10962 10964 10965 10965 10966 10971 10977 10980 10985 10988 10991 10993 10997 10998 11000
10685 10686 10686 10700 10711 10727 10741 10752 10769 10778 10786 10793 10806 10816 10839 10852 10866 10879 10888 10895 10900 10907 10916 10925 10930 10939 10946 10947 10951 10955 10958 10960 10963 10963 10965 10970 10975 10978 10982 10987 10991 10992 10995 10997
10659 10669 10670 10685 10699 10710 10721 10731 10744 10755 10761 10770 10785 10805 10817 10836 10850 10865 10875 10883 10888 10897 10910 10919 10925 10930 10935 10939 10944 10948 10952 10956 10962 10963 10962 10965 10968 10972 10976 10981 10985 10989 10991 10993
10637 10645 10646 10657 10673 10688 10703 10716 10726 10736 10742 10749 10769 10791 10799 10819 10829 10845 10855 10865 10872 10884 10899 10909 10918 10925 10926 10931 10937 10940 10946 10953 10957 10958 10961 10962 10962 10964 10968 10975 10979 10982 10986 10988
10620 10630 10633 10635 10651 10665 10677 10689 10700 10712 10723 10732 10752 10773 10784 10798 10811 10826 10837 10847 10858 10869 10885 10895 10902 10910 10917 10923 10928 10932 10937 10944 10950 10953 10955 10958 10960 10962 10964 10967 10973 10977 10980 10983
10596 10607 10611 10615 10625 10640 10654 10663 10674 10681 10692 10710 10733 10751 10767 10779 10791 10803 10816 10831 10842 10854 10867 10878 10887 10896 10903 10909 10915 10923 10927 10934 10940 10944 10945 10951 10954 10959 10961 10963 10967 10971 10975 10979
10578 10586 10591 10598 10602 10612 10627 10633 10642 10656 10670 10688 10700 10725 10751 10759 10770 10783 10799 10810 10824 10835 10849 10860 10871 10884 10890 10895 10902 10911 10917 10923 10930 10936 10941 10944 10948 10952 10956 10959 10964 10968 10970 10975
10560 10566 10574 10580 10582 10589 10597 10607 10616 10631 10647 10660 10681 10699 10717 10733 10747 10762 10776 10791 10803 10817 10830 10842 10855 10867 10872 10880 10889 10897 10905 10911 10919 10925 10932 10938 10942 10947 10951 10955 10959 10962 10967 10970
10541 10545 10552 10560 10562 10567 10576 10584 10591 10602 10621 10635 10655 10674 10692 10706 10721 10735 10752 10773 10785 10798 10810 10822 10834 10845 10853 10861 10874 10883 10893 10902 10909 10914 10924 10929 10934 10939 10943 10946 10951 10955 10960 10964
10524 10529 10534 10537 10543 10547 10552 10559 10563 10573 10595 10613 10628 10645 10664 10680 10699 10705 10721 10742 10759 10773 10788 10802 10813 10824 10836 10846 10858 10867 10879 10887 10899 10907 10913 10917 10923 10931 10937 10939 10945 10949 10953 10956
10506 10510 10515 10518 10522 10527 10527 10534 10543 10550 10568 10575 10596 10612 10633 10653 10675 10683 10695 10709 10729 10747 10763 10779 10794 10805 10818 10828 10840 10852 10863 10875 10885 10893 10900 10906 10910 10918 10923 10931 10937 10944 10948 10949
10490 10494 10496 10499 10503 10507 10502 10510 10522 10527 10534 10542 10557 10576 10601 10625 10644 10658 10668 10685 10702 10722 10741 10757 10774 10788 10800 10811 10822 10837 10849 10860 10868 10877 10886 10894 10901 10907 10911 10918 10924 10932 10940 10944
10479 10480 10481 10483 10484 10485 10486 10493 10498 10502 10505 10515 10528 10547 10573 10594 10612 10630 10638 10656 10676 10694 10715 10733 10753 10769 10785 10794 10805 10818 10833 10843 10853 10859 10870 10879 10888 10894 10900 10907 10913 10921 10928 10934
10466 10467 10468 10468 10469 10469 10472 10475 10478 10481 10485 10493 10501 10519 10544 10564 10580 10599 10609 10624 10647 10667 10686 10703 10723 10744 10762 10773 10786 10800 10814 10828 10833 10841 10853 10863 10872 10881 10890 10897 10904 10910 10917 10922
10455 10454 10455 10455 10455 10455 10458 10460 10463 10466 10470 10475 10482 10493 10515 10532 10548 10567 10580 10593 10614 10636 10654 10670 10695 10714 10734 10749 10768 10781 10795 10810 10817 10824 10836 10846 10858 10868 10877 10886 10894 10898 10905 10909
10441 10441 10441 10441 10442 10443 10446 10447 10447 10452 10455 10457 10464 10475 10488 10505 10516 10533 10547 10563 10582 10603 10621 10644 10669 10686 10702 10722 10741 10757 10772 10791 10801 10810 10820 10831 10844 10854 10864 10872 10879 10883 10890 10895